Santa Fe, NM

9:48 PM MDT on September 20, 2017 (GMT -0600)
Santa Fe Municipal

Weather History for KSAF - August, 2013

Change the Weather History Date:

Friday, August 16, 2013

  Actual Average Record
Temperature  
Mean Temperature 72 °F -  
Max Temperature 90 °F 82 °F 93 °F (2002)
Min Temperature 55 °F 51 °F 51 °F (1980)
Cooling Degree Days 7    
Growing Degree Days 22 (Base 50)    
Moisture  
Dew Point 42 °F    
Average Humidity 37    
Maximum Humidity 77    
Minimum Humidity 13    
Precipitation  
Precipitation 0.00 in - - ()
Sea Level Pressure  
Sea Level Pressure 29.98 in    
Wind  
Wind Speed 8 mph (SSW)    
Max Wind Speed 18 mph    
Max Gust Speed 24 mph    
Visibility 10 miles    
Events      
Averages and records for this station are not official NWS values.
T = Trace of Precipitation, MM = Missing Value Source: NWS Daily Summary

Daily Weather History Graph

Daily Weather History Graph

Search for Another Location

Airport or City:

Trip Planner

Search our weather history database for the weather conditions in past years. The results will help you decide how hot, cold, wet, or windy it might be!

Date:

Astronomy

Aug. 16, 2013 Rise Set
Actual Time 6:24 AM MDT 7:52 PM MDT
Civil Twilight 5:57 AM MDT 8:18 PM MDT
Nautical Twilight 5:25 AM MDT 8:51 PM MDT
Astronomical Twilight 4:51 AM MDT 9:25 PM MDT
Moon 4:09 PM MDT (8/16) 1:33 AM MDT (8/16)
Length of Visible Light 14h 21m
Length of Day
13h 27m
Waxing Gibbous, 75% of the Moon is Illuminated
Aug 16
Waxing Gibbous
Aug 20
Full
Aug 28
Last Quarter
Sep 5
New
Sep 12
First Quarter

Hourly Weather History & Observations

Time (MDT) Temp. Dew Point Humidity Pressure Visibility Wind Dir Wind Speed Gust Speed Precip Events Conditions
12:53 AM 66.9 °F 46.0 °F 47% 29.96 in 10.0 mi ESE 9.2 mph - N/A   Clear
1:53 AM 66.9 °F 46.9 °F 49% 29.96 in 10.0 mi SE 8.1 mph - N/A   Clear
2:53 AM 64.0 °F 46.9 °F 54% 29.96 in 10.0 mi SSE 4.6 mph - N/A   Clear
3:53 AM 61.0 °F 48.9 °F 64% 29.96 in 10.0 mi West 4.6 mph - N/A   Clear
4:53 AM 59.0 °F 48.9 °F 69% 29.98 in 10.0 mi NW 3.5 mph - N/A   Partly Cloudy
5:53 AM 57.9 °F 48.0 °F 70% 29.99 in 10.0 mi Calm Calm - N/A   Clear
6:53 AM 55.9 °F 48.9 °F 77% 30.02 in 10.0 mi North 4.6 mph - N/A   Clear
7:53 AM 64.9 °F 51.1 °F 61% 30.03 in 10.0 mi Calm Calm - N/A   Clear
8:53 AM 71.1 °F 48.9 °F 45% 30.02 in 10.0 mi WNW 4.6 mph - N/A   Clear
9:53 AM 73.9 °F 50.0 °F 43% 30.01 in 10.0 mi WSW 9.2 mph - N/A   Clear
10:53 AM 75.9 °F 48.9 °F 38% 30.01 in 10.0 mi Variable 6.9 mph - N/A   Clear
11:53 AM 80.1 °F 48.9 °F 34% 30.00 in 10.0 mi Calm Calm - N/A   Clear
12:53 PM 84.9 °F 45.0 °F 25% 29.95 in 10.0 mi Variable 3.5 mph - N/A   Clear
1:53 PM 87.1 °F 46.9 °F 25% 29.93 in 10.0 mi SW 13.8 mph - N/A   Clear
2:53 PM 89.1 °F 37.0 °F 16% 29.91 in 10.0 mi West 10.4 mph 16.1 mph N/A   Partly Cloudy
3:53 PM 89.1 °F 32.0 °F 13% 29.90 in 10.0 mi WSW 11.5 mph 21.9 mph N/A   Partly Cloudy
4:53 PM 89.1 °F 33.1 °F 14% 29.90 in 10.0 mi SW 10.4 mph - N/A   Clear
5:53 PM 89.1 °F 33.1 °F 14% 29.89 in 10.0 mi West 12.7 mph - N/A   Clear
6:53 PM 87.1 °F 33.1 °F 15% 29.91 in 10.0 mi WNW 8.1 mph - N/A   Clear
7:31 PM 82.4 °F 35.6 °F 19% 30.24 in 10.0 mi ESE 18.4 mph - N/A   Clear
7:53 PM 81.0 °F 36.0 °F 20% 29.93 in 10.0 mi SE 12.7 mph 24.2 mph N/A   Clear
8:53 PM 77.0 °F 37.0 °F 24% 29.95 in 10.0 mi SE 15.0 mph - N/A   Clear
9:53 PM 75.0 °F 37.0 °F 25% 29.98 in 10.0 mi SSE 10.4 mph - N/A   Clear
10:53 PM 73.0 °F 37.0 °F 27% 30.00 in 10.0 mi SE 13.8 mph - N/A   Scattered Clouds
11:53 PM 73.0 °F 37.0 °F 27% 29.99 in 10.0 mi East 13.8 mph - N/A   Clear